Preview of NWS' New Version of Forecast
This preview is not operational and should not be used for support decisions.

Regional Weather Roundup (RWR)

Issued by National Weather Service (NWS)

                            
000
ASUS43 KDMX 160101
RWRIA 

WEATHER ROUNDUP FOR IOWA
NATIONAL WEATHER SERVICE DES MOINES IA
800 PM CDT SUN SEP 15 2019

NOTE: "FAIR" INDICATES FEW OR NO CLOUDS BELOW 12,000 FEET WITH NO
SIGNIFICANT WEATHER AND/OR OBSTRUCTIONS TO VISIBILITY.

* - THESE STATIONS ARE NOT NWS STATIONS...THUS NOT UNDER NWS
QUALITY CONTROL.  THEY ALSO DO NOT REPORT WEATHER SUCH 
AS PRECIPITATION OR FOG.  

IAZ001>003-012>014-020>022-031>034-043>046-160200-
   NORTHWEST IOWA
  
CITY           SKY/WX    TMP DP  RH WIND       PRES   REMARKS
CARROLL *      CLEAR     72  70  94 E3        30.00S                  
CHEROKEE *     CLEAR     73  69  86 SE3       29.99F                  
DENISON *      CLEAR     73  72  94 E6        30.00F                  
LE MARS *      CLEAR     77  70  78 SE10      29.96F                  
SHELDON *        N/A     70  68  94 SE6       29.98S                  
SIOUX CITY     CLEAR     74  68  81 SE7       29.96F                  
SPENCER        CLEAR     73  67  81 S5        30.00F                  
STORM LAKE *   CLEAR     72  68  88 SE5       29.98S                  
$$
 
IAZ055>058-069>071-079>083-090>094-160200-
   SOUTHWEST IOWA
  
CITY           SKY/WX    TMP DP  RH WIND       PRES   REMARKS
ATLANTIC *     CLEAR     75  75 100 CALM      29.98S                  
AUDUBON *        N/A     73  70  88 CALM      30.02S                  
CLARINDA *     CLEAR     75  75 100 CALM      30.01S                  
COUNCIL BLFS * CLEAR     81  70  69 S5        29.97S HX  84           
CRESTON *      CLEAR     81  70  69 CALM      30.01S HX  84           
LAMONI         CLEAR     80  71  74 SW3       30.01R HX  84           
RED OAK *      CLEAR     77  72  83 CALM      29.99S                  
SHENANDOAH *   CLEAR     77  73  88 SE3       29.97S                  
$$
 
IAZ047>049-059>061-072>074-084-160200-
   CENTRAL IOWA
  
CITY           SKY/WX    TMP DP  RH WIND       PRES   REMARKS
AMES           CLEAR     72  70  93 CALM      30.00S                  
ANKENY *       CLEAR     77  72  83 NE3       30.01R                  
BOONE *        CLEAR     73  73 100 E5        30.01R                  
CHARITON *     PTCLDY    79  75  89 CALM      30.00R HX  82           
DES MOINES     PTCLDY    80  66  62 N5        29.99R HX  82           
GRINNELL*      CLEAR     75  69  82 N5        30.01S                  
KNOXVILLE *    CLEAR     82  72  69 N6        29.99S HX  87           
MARSHALLTOWN   CLEAR     75  72  90 NE3       30.00R                  
NEWTON *       CLEAR     77  73  88 N7        29.99S                  
PELLA *        CLEAR     75  70  83 CALM      30.00S                  
PERRY *        FAIR      72  70  92 CALM      30.00S                  
$$
 
IAZ004>006-015-016-023>025-035-036-160200-
   NORTH CENTRAL IOWA
  
CITY           SKY/WX    TMP DP  RH WIND       PRES   REMARKS
ALGONA *       CLEAR     73  72  94 SE3       29.99S                  
CLARION *      CLEAR     72  64  78 E6        30.01R                  
ESTHERVILLE    CLEAR     68  65  90 SE6       30.00S                  
FORT DODGE *   CLEAR     70  68  93 CALM      30.01S                  
MASON CITY     CLEAR     68  62  81 SE3       30.03R                  
FOREST CITY *  FAIR      70  66  88 CALM      30.01S                  
$$

IAZ007>011-017>019-026>030-037>042-050>054-066-160200-
   NORTHEAST IOWA
  
CITY           SKY/WX    TMP DP  RH WIND       PRES   REMARKS
CEDAR RAPIDS   FAIR      75  71  87 CALM      29.99R                  
CHARLES CITY * FAIR      70  64  83 NE5       30.02S                  
CLINTON *        N/A     73  72  96 NE6       30.01R                  
DECORAH *      FAIR      70  68  94 CALM      30.01R                  
DUBUQUE        MOCLDY    72  70  93 NE5       30.03R                  
MONTICELLO *   FAIR      75  75 100 NE3       30.00S                  
OELWEIN *      CLEAR     73  73 100 NE3       30.02R                  
WATERLOO       FAIR      70  65  84 N7        29.99R                  
$$
 
IAZ064-065-067-068-078-160200-
   EAST CENTRAL IOWA
  
CITY           SKY/WX    TMP DP  RH WIND       PRES   REMARKS
DAVENPORT      FAIR      73  70  90 CALM      30.01S                  
IOWA CITY      FAIR      79  73  82 CALM      29.99S HX  82           
MUSCATINE *    FAIR      77  73  88 CALM      29.99R                  
QUAD CITIES    FAIR      76  72  87 CALM      29.99R                  
$$
 
IAZ062-063-075>077-085>089-095>099-160200-
   SOUTHEAST IOWA
  
CITY           SKY/WX    TMP DP  RH WIND       PRES   REMARKS
BURLINGTON     CLEAR     76  72  87 CALM      29.99S                  
FAIRFIELD *    CLEAR     79  75  89 CALM      29.99S HX  82           
FORT MADISON * CLEAR     79  73  83 CALM      30.01R HX  82           
KEOKUK *       CLEAR     77  75  94 CALM      29.99R                  
OSKALOOSA *    FAIR      73  70  91 CALM      30.00R                  
OTTUMWA        CLEAR     77  71  82 CALM      29.98S                  
WASHINGTON *     N/A    N/A N/A N/A MISG        N/A                   
$$

ABBREVIATIONS USED IN REMARKS
   TC - TEMPERATURES IN CELSIUS
  WCI - WIND CHILL INDEX
   HX - HEAT INDEX
  VSB - VISIBILITY  
$$